GW4254 Weather Reports


time (UTC)temp
C
wind
direction
speed
KPH
gust
KPH
rain 1hr
cm
rain 24hr
cm
rain mn
cm
humidity
%
barometer
mb
20260507161520 16 156 1.6 4.8 0.00 0.00 0.00 86 1017.8
20260507161006 16 160 1.6 4.8 0.00 0.00 0.00 86 1017.7
20260507160505 16 198 1.6 4.8 0.00 0.00 0.00 86 1017.8
20260507160022 16 207 3.2 4.8 0.00 0.00 0.00 86 1017.8
20260507155508 16 183 3.2 4.8 0.00 0.00 0.00 85 1017.8
20260507155007 16 205 3.2 4.8 0.00 0.00 0.00 85 1017.8
20260507154521 16 159 3.2 4.8 0.00 0.00 0.00 85 1017.9
20260507154008 16 158 1.6 4.8 0.00 0.00 0.00 85 1018.0
20260507153505 16 177 3.2 4.8 0.00 0.00 0.00 85 1017.9
20260507153025 16 143 1.6 4.8 0.00 0.00 0.00 83 1017.9
20260507152512 16 157 3.2 4.8 0.00 0.00 0.00 83 1017.9
20260507152012 16 162 3.2 4.8 0.00 0.00 0.00 83 1017.9
20260507151525 16 181 1.6 3.2 0.00 0.00 0.00 83 1017.9
20260507151012 16 101 0.0 3.2 0.00 0.00 0.00 84 1017.9
20260507150507 16 92 0.0 4.8 0.00 0.00 0.00 85 1017.8
20260507150015 15 53 1.6 4.8 0.00 0.00 0.00 85 1017.8
20260507145504 15 33 3.2 4.8 0.00 0.00 0.00 85 1017.8
20260507145007 15 44 3.2 4.8 0.00 0.00 0.00 85 1017.7
20260507144518 15 35 3.2 6.4 0.00 0.00 0.00 86 1017.7
20260507144009 14 37 4.8 6.4 0.00 0.00 0.00 86 1017.7
20260507143506 14 30 4.8 6.4 0.00 0.00 0.00 86 1017.6
20260507143022 14 17 1.6 6.4 0.00 0.00 0.00 87 1017.6
20260507142509 13 29 3.2 9.7 0.00 0.00 0.00 87 1017.5
20260507142017 13 62 3.2 9.7 0.00 0.00 0.00 87 1017.3
20260507141525 13 53 8.0 9.7 0.00 0.00 0.00 87 1017.3
20260507141011 13 16 4.8 9.7 0.00 0.00 0.00 88 1017.3
20260507140511 13 53 8.0 9.7 0.00 0.00 0.00 88 1017.3
20260507140027 13 35 4.8 9.7 0.00 0.00 0.00 88 1017.3
20260507135505 13 46 6.4 9.7 0.00 0.00 0.00 88 1017.2
20260507135003 12 36 4.8 9.7 0.00 0.00 0.00 89 1017.2
20260507134518 12 32 6.4 9.7 0.00 0.00 0.00 88 1017.2
20260507134007 12 49 4.8 9.7 0.00 0.00 0.00 89 1017.1
20260507133507 12 46 3.2 6.4 0.00 0.00 0.00 89 1017.0
20260507133022 12 31 3.2 4.8 0.00 0.00 0.00 89 1017.0
20260507132510 -17 0.0 0.0 0.00 0.00 0.00 1016.9
20260507132011 -17 0.0 0.0 0.00 0.00 0.00 1016.9
20260507131526 -17 0.0 0.0 0.00 0.00 0.00 1016.9
20260507131014 -17 0.0 0.0 0.00 0.00 0.00 1017.0
20260507130510 -17 0.0 0.0 0.00 0.00 0.00 1016.9
20260507130028 -17 0.0 0.0 0.00 0.00 0.00 1016.8
20260507125512 -17 120 0.0 0.0 0.00 0.00 0.00 1016.8
20260507125012 12 0.0 0.0 0.00 0.00 0.00 1016.7
20260507124525 12 120 0.0 0.0 0.00 0.00 0.00 1016.7
20260507124013 -17 0.0 0.0 0.00 0.00 0.00 1016.6
20260507123509 -17 0.0 0.0 0.00 0.00 0.00 1016.6
20260507123026 12 0.0 0.0 0.00 0.00 0.00 1016.6
20260507122509 12 0.0 0.0 0.00 0.00 0.00 1016.6
20260507122014 13 0.0 0.0 0.00 0.00 0.00 1016.6
20260507121528 13 120 0.0 0.0 0.00 0.00 0.00 1016.6
20260507121010 13 0.0 0.0 0.00 0.00 0.00 100 1016.6
20260507120510 13 120 0.0 0.0 0.00 0.00 0.00 100 1016.6
20260507120023 13 120 0.0 0.0 0.00 0.00 0.00 100 1016.5
20260507115510 -17 120 0.0 0.0 0.00 0.00 0.00 100 1016.6
20260507115016 -17 0.0 0.0 0.00 0.00 0.00 100 1016.6
20260507114527 -17 0.0 0.0 0.00 0.00 0.00 1016.6
20260507114011 13 0.0 0.0 0.00 0.00 0.00 1016.5
20260507113508 13 0.0 0.0 0.00 0.00 0.00 1016.5
20260507113028 -17 0.0 0.0 0.00 0.00 0.00 100 1016.5
20260507112513 -17 0.0 0.0 0.00 0.00 0.00 100 1016.6
20260507112008 13 0.0 0.0 0.00 0.00 0.00 1016.6
20260507111539 13 120 0.0 0.0 0.00 0.00 0.00 100 1016.6
20260507111008 13 120 0.0 0.0 0.00 0.00 0.00 100 1016.7
20260507110512 13 120 0.0 0.0 0.00 0.00 0.00 100 1016.7
20260507104003 13 34 3.2 4.8 0.00 0.00 0.00 89 1016.9
20260507103503 13 1 1.6 6.4 0.00 0.00 0.00 89 1017.0
20260507103013 13 38 3.2 6.4 0.00 0.00 0.00 89 1017.0
20260507102503 13 26 3.2 6.4 0.00 0.00 0.00 89 1017.0
20260507102008 13 20 4.8 6.4 0.00 0.00 0.00 89 1017.0
20260507101520 13 14 3.2 6.4 0.00 0.00 0.00 89 1017.1
20260507101004 13 25 3.2 6.4 0.00 0.00 0.00 89 1017.1
20260507100507 13 6 1.6 8.0 0.00 0.00 0.00 89 1017.1
20260507100025 13 36 4.8 8.0 0.00 0.00 0.00 89 1017.2
20260507095511 13 37 3.2 6.4 0.00 0.00 0.00 89 1017.2
20260507095011 13 30 3.2 4.8 0.00 0.00 0.00 89 1017.2
20260507094538 13 1 0.0 6.4 0.00 0.00 0.00 89 1017.3
20260507094005 13 12 3.2 6.4 0.00 0.00 0.00 89 1017.3
20260507093503 13 26 1.6 6.4 0.00 0.00 0.00 89 1017.3
20260507093017 13 44 3.2 6.4 0.00 0.00 0.00 89 1017.4
20260507092504 13 45 3.2 4.8 0.00 0.00 0.00 89 1017.5
20260507092006 13 17 1.6 8.0 0.00 0.00 0.00 88 1017.4
20260507091526 13 26 3.2 8.0 0.00 0.00 0.00 88 1017.5
20260507091009 13 13 3.2 6.4 0.00 0.00 0.00 88 1017.5
20260507090504 13 31 3.2 4.8 0.00 0.00 0.00 88 1017.6
20260507090032 13 41 3.2 4.8 0.00 0.00 0.00 88 1017.7
20260507085505 13 31 1.6 4.8 0.00 0.00 0.00 88 1017.7
20260507085006 13 28 1.6 8.0 0.00 0.00 0.00 88 1017.7
20260507084533 13 29 3.2 8.0 0.00 0.00 0.00 88 1017.8
20260507084007 13 354 4.8 8.0 0.00 0.00 0.00 87 1017.7
20260507083509 13 333 4.8 6.4 0.00 0.00 0.00 87 1017.8
20260507083023 13 358 3.2 8.0 0.00 0.00 0.00 87 1017.8
20260507082503 13 360 3.2 8.0 0.00 0.00 0.00 87 1017.9
20260507082005 13 355 4.8 8.0 0.00 0.00 0.00 87 1017.9
20260507081519 13 352 4.8 8.0 0.00 0.00 0.00 87 1018.0
20260507081003 13 347 4.8 8.0 0.00 0.00 0.00 87 1018.0
20260507080506 13 349 3.2 4.8 0.00 0.00 0.00 87 1018.1
20260507080015 13 360 3.2 6.4 0.00 0.00 0.00 87 1018.1
20260507075508 13 355 3.2 6.4 0.00 0.00 0.00 86 1018.2
20260507075011 13 342 3.2 6.4 0.00 0.00 0.00 86 1018.2
20260507074519 13 360 3.2 9.7 0.00 0.00 0.00 86 1018.2
20260507074007 13 354 4.8 9.7 0.00 0.00 0.00 85 1018.3
20260507073507 14 358 4.8 8.0 0.00 0.00 0.00 85 1018.3
20260507073025 14 322 4.8 6.4 0.00 0.00 0.00 85 1018.2
20260507072506 14 323 1.6 4.8 0.00 0.00 0.00 85 1018.1
20260507072008 14 352 1.6 6.4 0.00 0.00 0.00 85 1018.1
20260507071526 14 341 3.2 6.4 0.00 0.00 0.00 85 1018.1
20260507071008 14 344 3.2 6.4 0.00 0.00 0.00 85 1018.3
20260507070504 15 337 3.2 9.7 0.00 0.00 0.00 84 1018.4
20260507070018 15 340 3.2 9.7 0.00 0.00 0.00 84 1018.3
20260507065507 15 336 6.4 9.7 0.00 0.00 0.00 84 1018.3
20260507065004 15 345 3.2 6.4 0.00 0.00 0.00 84 1018.2
20260507064517 15 335 3.2 6.4 0.00 0.00 0.00 84 1018.2
20260507064005 15 345 3.2 4.8 0.00 0.00 0.00 84 1018.2
20260507063510 15 329 3.2 4.8 0.00 0.00 0.00 84 1018.2
20260507063019 15 338 3.2 4.8 0.00 0.00 0.00 84 1018.2
20260507062510 15 359 3.2 4.8 0.00 0.00 0.00 83 1018.3
20260507061525 15 352 1.6 3.2 0.00 0.00 0.00 83 1018.3
20260507061010 15 8 1.6 3.2 0.00 0.00 0.00 83 1018.3
20260507060507 15 354 1.6 4.8 0.00 0.00 0.00 83 1018.3
20260507060040 15 359 0.0 6.4 0.00 0.00 0.00 82 1018.3
20260507055504 15 347 3.2 6.4 0.00 0.00 0.00 82 1018.3
20260507055004 16 340 3.2 6.4 0.00 0.00 0.00 82 1018.2
20260507054515 16 336 1.6 4.8 0.00 0.00 0.00 82 1018.2
20260507054007 16 351 1.6 6.4 0.00 0.00 0.00 82 1018.3
20260507053505 16 341 3.2 8.0 0.00 0.00 0.00 82 1018.3
20260507053020 16 334 3.2 8.0 0.00 0.00 0.00 82 1018.3
20260507052506 16 328 4.8 14.5 0.00 0.00 0.00 83 1018.2
20260507052013 16 341 6.4 14.5 0.00 0.00 0.00 83 1018.2
20260507051524 16 284 9.7 14.5 0.00 0.00 0.00 84 1018.2
20260507050509 16 274 11.3 16.1 0.00 0.00 0.00 83 1018.2
20260507050024 16 274 8.0 16.1 0.00 0.00 0.00 83 1018.1
20260507045509 16 281 11.3 16.1 0.00 0.00 0.00 83 1018.1
20260507045009 16 269 11.3 16.1 0.00 0.00 0.00 83 1018.2
20260507044544 16 267 9.7 16.1 0.00 0.00 0.00 83 1018.2
20260507044007 16 274 9.7 14.5 0.00 0.00 0.00 84 1018.2
20260507043506 16 282 8.0 12.9 0.00 0.00 0.00 84 1018.1
20260507043018 16 283 9.7 12.9 0.00 0.00 0.00 84 1018.2
20260507042507 16 282 6.4 12.9 0.00 0.00 0.00 84 1018.2
20260507042010 16 275 8.0 14.5 0.00 0.00 0.00 84 1018.2
20260507041524 16 295 6.4 14.5 0.00 0.00 0.00 84 1018.2
20260507040506 16 276 8.0 14.5 0.00 0.00 0.00 84 1018.2
20260507040031 16 273 11.3 14.5 0.00 0.00 0.00 84 1018.2
20260507035019 16 257 11.3 14.5 0.00 0.00 0.00 83 1018.1
20260507034523 16 278 9.7 16.1 0.00 0.00 0.00 83 1018.1
20260507034007 16 269 11.3 16.1 0.00 0.00 0.00 83 1018.0
20260507033508 16 269 9.7 16.1 0.00 0.00 0.00 82 1017.9
20260507033028 16 276 11.3 16.1 0.00 0.00 0.00 81 1018.0
20260507032509 16 274 12.9 16.1 0.00 0.00 0.00 81 1017.9
20260507032010 16 284 11.3 17.7 0.00 0.00 0.00 82 1018.0
20260507031520 16 283 12.9 17.7 0.00 0.00 0.00 82 1017.9
20260507031006 16 275 11.3 17.7 0.00 0.00 0.00 82 1017.9
20260507030024 16 293 11.3 17.7 0.00 0.00 0.00 83 1017.6
20260507025509 16 281 11.3 17.7 0.00 0.00 0.00 83 1017.5
20260507024528 16 278 12.9 17.7 0.00 0.00 0.00 84 1017.5
20260507023509 17 310 9.7 16.1 0.00 0.00 0.00 84 1017.4
20260507023025 17 282 12.9 16.1 0.00 0.00 0.00 84 1017.3
20260507022513 17 271 11.3 16.1 0.00 0.00 0.00 83 1017.3
20260507022009 17 274 12.9 16.1 0.00 0.00 0.00 83 1017.2
20260507021521 17 302 12.9 16.1 0.00 0.00 0.00 83 1017.2
20260507021009 17 245 11.3 16.1 0.00 0.00 0.00 83 1017.2
20260507020508 17 269 11.3 16.1 0.00 0.00 0.00 83 1017.2
20260507020030 17 283 11.3 16.1 0.00 0.00 0.00 82 1017.2
20260507015008 17 272 12.9 17.7 0.00 0.00 0.00 82 1017.1
20260507014525 17 277 11.3 17.7 0.00 0.00 0.00 82 1017.1
20260507013508 17 274 9.7 19.3 0.00 0.00 0.00 83 1017.1
20260507012008 17 271 12.9 19.3 0.00 0.00 0.00 81 1017.1
20260507011528 17 271 12.9 22.5 0.00 0.00 0.00 82 1017.0
20260507011012 17 217 12.9 22.5 0.00 0.00 0.00 81 1017.0
20260507010509 18 258 11.3 22.5 0.00 0.00 0.00 81 1017.0
20260507010026 18 263 16.1 22.5 0.00 0.00 0.00 80 1016.9
20260507005508 18 274 12.9 22.5 0.00 0.00 0.00 80 1016.9
20260507004505 18 231 16.1 22.5 0.00 0.00 0.00 77 1016.8
20260507004002 18 266 14.5 22.5 0.00 0.00 0.00 76 1016.9
20260507003502 18 261 14.5 22.5 0.00 0.00 0.00 76 1016.9
20260507003017 18 276 14.5 22.5 0.00 0.00 0.00 76 1016.8
20260507002504 18 257 14.5 22.5 0.00 0.00 0.00 76 1016.8
20260507002007 18 212 12.9 20.9 0.00 0.00 0.00 77 1016.8
20260507001522 18 255 14.5 19.3 0.00 0.00 0.00 78 1016.8
20260507001004 18 264 11.3 19.3 0.00 0.00 0.00 78 1016.8
20260507000018 18 243 16.1 24.1 0.00 0.00 0.00 79 1016.6
20260506235008 18 248 12.9 20.9 0.00 0.00 0.00 79 1016.6
20260506234523 18 228 14.5 20.9 0.00 0.00 0.00 79 1016.6
20260506233007 18 244 12.9 22.5 0.00 0.00 0.00 79 1016.6
20260506232503 18 253 14.5 22.5 0.00 0.00 0.00 79 1016.6
20260506232003 18 252 12.9 22.5 0.00 0.00 0.00 79 1016.7
20260506231514 18 294 14.5 20.9 0.00 0.00 0.00 79 1016.7
20260506231003 18 259 14.5 22.5 0.00 0.00 0.00 79 1016.7
20260506230505 18 255 16.1 24.1 0.00 0.00 0.00 78 1016.7
20260506230019 18 271 14.5 24.1 0.00 0.00 0.00 79 1016.8
20260506225507 18 273 17.7 22.5 0.00 0.00 0.00 80 1016.9
20260506225007 18 279 14.5 24.1 0.00 0.00 0.00 80 1017.0
20260506224521 18 249 14.5 24.1 0.00 0.00 0.00 79 1017.1
20260506223506 18 252 16.1 24.1 0.00 0.00 0.00 79 1017.2
20260506223024 18 264 16.1 24.1 0.00 0.00 0.00 78 1017.2
20260506222509 18 259 16.1 24.1 0.00 0.00 0.00 79 1017.3
20260506222009 18 257 19.3 24.1 0.00 0.00 0.00 78 1017.3
20260506221507 18 265 14.5 24.1 0.00 0.00 0.00 79 1017.4
20260506220012 18 258 14.5 24.1 0.00 0.00 0.00 80 1017.7
20260506214520 18 265 14.5 22.5 0.00 0.00 0.00 79 1017.8
20260506213512 17 245 16.1 22.5 0.00 0.00 0.00 80 1017.9
20260506213021 17 219 16.1 22.5 0.00 0.00 0.00 80 1017.9
20260506212507 17 235 14.5 22.5 0.00 0.00 0.00 79 1017.9
20260506212011 17 248 14.5 22.5 0.00 0.00 0.00 78 1018.0
20260506211523 17 250 14.5 20.9 0.00 0.00 0.00 79 1018.0
20260506211006 17 253 14.5 19.3 0.00 0.00 0.00 79 1018.1
20260506210506 17 224 11.3 19.3 0.00 0.00 0.00 79 1018.2
20260506204515 17 249 14.5 22.5 0.00 0.00 0.00 79 1018.2
20260506203509 17 218 12.9 20.9 0.00 0.00 0.00 78 1018.3
20260506203022 17 243 12.9 20.9 0.00 0.00 0.00 78 1018.3
20260506202509 17 242 12.9 17.7 0.00 0.00 0.00 78 1018.4
20260506201524 17 259 11.3 17.7 0.00 0.00 0.00 79 1018.5
20260506201008 17 252 14.5 17.7 0.00 0.00 0.00 80 1018.6
20260506200510 17 262 11.3 17.7 0.00 0.00 0.00 80 1018.5
20260506200025 17 221 11.3 17.7 0.00 0.00 0.00 1018.5
20260506195509 17 234 9.7 17.7 0.00 0.00 0.00 1018.5
20260506195013 17 238 11.3 17.7 0.00 0.00 0.00 80 1018.7
20260506194511 17 274 11.3 17.7 0.00 0.00 0.00 80 1018.8
20260506193018 17 245 11.3 17.7 0.00 0.00 0.00 79 1018.7
20260506191521 16 256 12.9 17.7 0.00 0.00 0.00 1018.8
20260506190025 16 242 11.3 16.1 0.00 0.00 0.00 80 1019.0
20260506185502 16 236 11.3 14.5 0.00 0.00 0.00 80 1018.9
20260506185002 16 243 11.3 14.5 0.00 0.00 0.00 80 1019.0
20260506184503 16 243 11.3 14.5 0.00 0.00 0.00 79 1019.1
20260506184005 16 220 9.7 12.9 0.00 0.00 0.00 80 1019.0
20260506183503 16 219 9.7 12.9 0.00 0.00 0.00 79 1019.1
20260506183005 16 236 9.7 11.3 0.00 0.00 0.00 79 1019.3
20260506182503 16 209 8.0 11.3 0.00 0.00 0.00 79 1019.3
20260506182003 16 360 8.0 11.3 0.00 0.00 0.00 79 1019.3
20260506181503 16 202 8.0 11.3 0.00 0.00 0.00 79 1019.3
20260506181003 16 243 6.4 11.3 0.00 0.00 0.00 79 1019.4
20260506180503 16 229 8.0 9.7 0.00 0.00 0.00 79 1019.3
20260506180004 16 205 8.0 9.7 0.00 0.00 0.00 79 1019.3
20260506175504 16 242 8.0 11.3 0.00 0.00 0.00 80 1019.5
20260506175002 16 236 8.0 11.3 0.00 0.00 0.00 80 1019.5
20260506174503 16 231 8.0 12.9 0.00 0.00 0.00 80 1019.5
20260506174002 16 214 9.7 12.9 0.00 0.00 0.00 80 1019.4
20260506173502 16 223 8.0 12.9 0.00 0.00 0.00 80 1019.3
20260506173004 16 232 8.0 9.7 0.00 0.00 0.00 79 1019.4
20260506172504 16 229 6.4 8.0 0.00 0.00 0.00 79 1019.5
20260506172003 16 220 6.4 9.7 0.00 0.00 0.00 79 1019.5
20260506171511 16 237 6.4 9.7 0.00 0.00 0.00 78 1019.5
20260506171003 16 199 4.8 8.0 0.00 0.00 0.00 79 1019.5
20260506170505 16 203 4.8 8.0 0.00 0.00 0.00 78 1019.5
20260506170004 16 246 4.8 8.0 0.00 0.00 0.00 77 1019.5
20260506165503 16 216 4.8 8.0 0.00 0.00 0.00 78 1019.4
20260506165003 16 216 4.8 8.0 0.00 0.00 0.00 78 1019.4
20260506164503 16 200 4.8 8.0 0.00 0.00 0.00 78 1019.4
20260506164006 16 214 4.8 6.4 0.00 0.00 0.00 77 1019.4
20260506163502 16 210 3.2 6.4 0.00 0.00 0.00 77 1019.5
20260506163003 16 240 3.2 6.4 0.00 0.00 0.00 77 1019.5
20260506162502 16 284 3.2 6.4 0.00 0.00 0.00 76 1019.5
20260506162002 16 214 3.2 4.8 0.00 0.00 0.00 76 1019.5